Retour au catalogue

FALCON HEAVY R/B

ActifMEO
NORAD 68894·ROCKET BODY·🇺🇸 United States

Lancé Apr 29, 2026 depuis Cape Canaveral Space Force Station

Loading…

Prochains Passages (prochaines 24 heures)

TLE

FraisSource: Space-Track

Époque: Sep 14, 2026, 09:55 UTC

1 68894U 26096B   26257.41328549 -.00000123  00000-0  00000-0 0  9993
2 68894   2.4468 277.3187 1479141 186.9566 170.2153  1.35919176  1871

Suivez FALCON HEAVY R/B en temps réel avec AllMySat

Download on the App Store